Flag for Switzerland Weather past 2 weeks in Altstätten, St. Gallen, Switzerland

Now
50 °F

Light rain. Passing clouds.


Feels Like: 46 °F
Forecast: 43 / 47 °F
Wind: 10 mph from Southwest

Location: Saint Gallen-Altenrhein

Current Time: Mar 30, 2015 at 12:23:53 AM

Latest Report: Mar 29, 2015 at 11:20 PM


Visibility: N/A

Pressure: 29.74 "Hg

Humidity: 82%

Dew point: 45 °F

Location of AltstättenLocation

Historic Weather in Altstätten — Graph

°F

Altstätten temperature yesterday

Maximum temperature yesterday: 57 °F (at 1:20 PM)
Minimum temperature yesterday: 46 °F (at 4:50 AM)
Average temperature yesterday: 52 °F

Past Weeks' High & Low Weather Summary

 TemperatureHumidityPressure
High61 °F (Mar 17, 3:20 PM)100% (Mar 15, 1:20 AM)30.27 "Hg (Mar 15, 1:20 AM)
Low30 °F (Mar 14, 11:50 PM)29% (Mar 25, 1:20 AM)29.56 "Hg (Mar 25, 1:50 PM)
Average45 °F77%30.02 "Hg
* Reported Mar 14 10:20 PM — Mar 29 11:20 PM, Altstätten, Weather by CustomWeather, © 2015

Note: Actual official high and low records may vary slightly from our data, if they occured in-between our weather recording intervals... More about our weather records

Advertising

Altstätten weather history for previous 24 hours

 ConditionsComfort  
Time TempWeatherWind HumidityBarometerVisibility
11:20 PM
Sun, Mar 29
50 °FLight rain. Passing clouds.10 mph82%29.74 "HgN/A
10:50 PM52 °FLight rain. Passing clouds.13 mph72%29.74 "HgN/A
10:20 PM52 °FLight rain. Passing clouds.10 mph72%29.77 "HgN/A
9:50 PM52 °FLight rain. Partly cloudy.8 mph72%29.77 "HgN/A
9:20 PM54 °FLight rain. Partly cloudy.13 mph63%29.74 "HgN/A
8:50 PM54 °FSprinkles. Passing clouds.17 mph67%29.77 "HgN/A
8:20 PM54 °FSprinkles. Overcast.9 mph67%29.77 "HgN/A
7:50 PM54 °FScattered showers. Partly sunny.8 mph67%29.80 "HgN/A
7:20 PM55 °FPartly sunny.5 mph59%29.80 "HgN/A
6:50 PM54 °FPartly sunny.5 mph63%29.80 "HgN/A
6:20 PM54 °FSprinkles. Partly sunny.14 mph63%29.83 "HgN/A
5:50 PM52 °FSprinkles. Partly sunny.9 mph72%29.83 "HgN/A
5:20 PM52 °FSprinkles. Partly sunny.6 mph77%29.86 "HgN/A
4:50 PM52 °FSprinkles. Partly sunny.9 mph72%29.83 "HgN/A
4:20 PM52 °FSprinkles. Partly sunny.10 mph72%29.86 "HgN/A
3:50 PM52 °FSprinkles. Partly sunny.14 mph72%29.86 "HgN/A
3:20 PM52 °FSprinkles. Partly sunny.16 mph67%29.86 "HgN/A
2:50 PM54 °FSprinkles. Partly sunny.15 mph67%29.86 "HgN/A
2:20 PM55 °FSprinkles. Partly sunny.13 mph63%29.86 "HgN/A
1:50 PM55 °FPartly sunny.16 mph59%29.86 "HgN/A
1:20 PM57 °FPartly sunny.10 mph51%29.89 "HgN/A
12:50 PM55 °FPartly sunny.7 mph63%29.89 "HgN/A
12:20 PM55 °FPartly sunny.14 mph55%29.92 "HgN/A
11:50 AM55 °FPartly sunny.9 mph55%29.92 "HgN/A
11:20 AM54 °FPartly sunny.6 mph63%29.95 "HgN/A
10:50 AM54 °FPartly sunny.9 mph63%29.95 "HgN/A
10:20 AM52 °FBroken clouds.3 mph67%29.95 "HgN/A
9:50 AM52 °FPartly sunny.7 mph77%29.95 "HgN/A
9:20 AM54 °FPartly sunny.5 mph63%29.95 "HgN/A
8:50 AM52 °FOvercast.5 mph67%29.95 "HgN/A
8:20 AM52 °FOvercast.6 mph67%29.98 "HgN/A
7:50 AM48 °FMostly cloudy.3 mph82%29.98 "HgN/A
7:20 AM48 °FPartly cloudy.3 mph82%30.01 "HgN/A
6:50 AM50 °FPassing clouds.2 mph76%30.01 "HgN/A
6:20 AM50 °FPartly cloudy.3 mph76%30.01 "HgN/A
5:50 AM50 °FPartly cloudy.7 mph76%30.01 "HgN/A
5:20 AM48 °FOvercast.3 mph82%30.01 "HgN/A
4:50 AM46 °FPassing clouds.5 mph87%30.04 "HgN/A
4:20 AM48 °FMostly cloudy.2 mph82%30.04 "HgN/A
3:50 AM48 °FOvercast.2 mph82%30.04 "HgN/A
3:20 AM50 °FOvercast.3 mph76%30.04 "HgN/A
1:50 AM52 °FPartly cloudy.5 mph67%30.04 "HgN/A
1:20 AM52 °FPassing clouds.5 mph67%30.07 "HgN/A
12:50 AM48 °FPassing clouds.2 mph82%30.07 "HgN/A
12:20 AM48 °FPartly cloudy.5 mph76%30.07 "HgN/A
Weather by CustomWeather, © 2015

See weather overviewHow to use our weather pages